Regional Weather Roundup
Issued by NWS

Home | Current Version | Previous Version | Graphics & Text | Print | Product List | Glossary On
Versions: 1 2 3 4 5 6 7 8 9 10 11 12 13 14 15 16 17 18 19 20 21 22 23 24 25 26 27
000
ASUS45 KCYS 150310
RWRWY

WYOMING REGIONAL WEATHER ROUNDUP
NATIONAL WEATHER SERVICE CHEYENNE WY
800 PM MST THU DEC 14 2017

NOTE:  "FAIR" INDICATES FEW OR NO CLOUDS BELOW 12,000 FEET
WITH NO SIGNIFICANT WEATHER AND/OR OBSTRUCTIONS TO VISIBILITY.

WYZ001-150400-
YELLOWSTONE NATIONAL PARK

CITY           SKY/WX    TMP DP  RH WIND       PRES   REMARKS
LK YELLOWSTONE   N/A      8   6  92 CALM      30.32R
W YELLOWSTONE  NOT AVBL

$$
WYZ002>013-054>058-071-098>099-150400-
NORTHERN WYOMING

CITY           SKY/WX    TMP DP  RH WIND       PRES   REMARKS
JACKSON        FAIR      14  10  84 N7        30.33S WCI   4
CODY           FAIR      23  16  74 SW3       30.15F
GREYBULL       FAIR      27  17  66 SE5       30.19F WCI  22
WORLAND        FAIR      26  19  74 S7        30.19F WCI  18
SHERIDAN       FAIR      19  16  88 CALM      30.11F
BUFFALO        FAIR      30  15  53 S12       30.13F WCI  20
GILLETTE       FAIR      26  18  71 SW6       30.13F WCI  19
HULETT         FAIR      27  19  74 SW12      30.13F WCI  16
NEWCASTLE      FAIR      19  14  79 NE3       30.17F

$$
WYZ014>020-022>026-101>103-150400-
CENTRAL WYOMING

CITY           SKY/WX    TMP DP  RH WIND       PRES   REMARKS
BIG PINEY      FAIR      11   9  92 N7        30.29S WCI   0
PINEDALE       FAIR       9   5  85 NW3       30.30R
DUBOIS         FAIR      30  -2  24 NW12      30.20F WCI  21
LANDER         FAIR      24  16  71 CALM      30.19F
RIVERTON       FAIR      22  16  78 CALM      30.20F
CASPER         FAIR      26  16  65 SW17      30.20F WCI  13
DOUGLAS        FAIR      21  18  88 N3        30.18F

$$
WYZ021-027>030-104>119-150400-
SOUTHERN WYOMING

CITY           SKY/WX    TMP DP  RH WIND       PRES   REMARKS
EVANSTON       FAIR      27  19  72 S9        30.35S WCI  18
FORT BRIDGER   FAIR      30  16  56 W15       30.35S WCI  19
ROCK SPRINGS   FAIR      28  10  46 SW17      30.28S WCI  16
DIXON          FAIR      18  13  80 SE7       30.36S WCI   8
RAWLINS        FAIR      23  16  74 CALM      30.27F
SARATOGA       FAIR      12  10  92 S14G20    30.29F WCI  -3
LARAMIE        FAIR       6   4  91 SE10      30.21R WCI  -9
CHEYENNE       FAIR      25  13  60 NW13      30.16F WCI  14
TORRINGTON     FAIR      24  17  74 SW5       30.20S WCI  18
PINE BLUFFS    FAIR      16  12  86 W5        30.21R WCI   9

$$




USA.gov is the U.S. government's official web portal to all federal, state and local government web resources and services.